World > North America > United States > Arkansas > Witherspoon

Hourly Witherspoon, AR Regional Weather

Feedback E-mail the Weather

Quick WX

Witherspoon, AR Weather Maps

°F °C°F °C
Witherspoon Weather Map
UTC Time: 8/17/2022, 19:16
Your Time:

Witherspoon, AR Regional Weather

Expires:202208172000;;210695
ASUS44 KLZK 171910
RWRLZK

WEATHER ROUNDUP FOR ARKANSAS
NATIONAL WEATHER SERVICE LITTLE ROCK AR
200 PM CDT WED AUG 17 2022

NOTE: "FAIR" INDICATES FEW OR NO CLOUDS BELOW 12,000 FEET WITH NO
SIGNIFICANT WEATHER AND/OR OBSTRUCTIONS TO VISIBILITY.


ARZ050-053-066-070-072-073-172000-
SOUTHWEST ARKANSAS
  
CITY           SKY/WX    TMP DP  RH WIND       PRES   REMARKS
CAMDEN         LGT RAIN  79  77  94 NE6       29.97F                  
TEXARKANA      CLOUDY    85  72  65 S6        29.96F HX  91           
MAGNOLIA       CLEAR     86  73  66 VRB3      29.95F HX  93           
EL DORADO      PTSUNNY   83  73  72 E7        29.97F HX  89           
DE QUEEN       PTSUNNY   82  69  64 NE6       29.97F HX  85           
$$


SKY/WX - Weather  TMP - Temperature  DP - Dew Point  RH - Humidity
WIND - Wind Direction/Speed PRES - Barometric Pressure VSB - Visibility
WCI - Wind Chill Index E13G22 Wind - East Wind 13 mph/Gusts of 22 mph

Trending Headlines

Witherspoon Radar Loop



Witherspoon Quick Facts


National Two Day Weather Forecast


E-mail the Witherspoon Weather Forecast

Voice your opinion or tell us about page issues...